Tracking 30072 objects as of 14-Jan-2025
HD Live streaming from Space Station
objects crossing your sky now

STARLINK-2590

Track STARLINK-2590 now!
10-day predictions
STARLINK-2590 is classified as:


NORAD ID: 48397
Int'l Code: 2021-038AW
Perigee: 553.4 km
Apogee: 555.3 km
Inclination: 53.1 °
Period: 95.6 minutes
Semi major axis: 6925 km
RCS: Unknown
Launch date: May 4, 2021
Source: United States (US)
Launch site: AIR FORCE EASTERN TEST RANGE (AFETR)
Your satellite tracking list
Your tracking list is empty




NASA's NSSDC Master Catalog

Two Line Element Set (TLE):
1 48397U 21038AW  25014.44272951  .00004734  00000-0  33647-3 0  9995
2 48397  53.0534  63.6906 0001327  86.1290 273.9851 15.06400860204700
Source of the keplerian elements: AFSPC